Weather History for George, South Africa

Change the Weather History Date:

Thursday, June 13, 2013

  Actual Average Record
Temperature  
Mean Temperature 54 °F -  
Max Temperature 63 °F 65 °F 82 °F (2001)
Min Temperature 45 °F 45 °F 41 °F (2000)
Degree Days  
Heating Degree Days 11    
Growing Degree Days 4 (Base 50)    
Moisture  
Dew Point 46 °F    
Average Humidity 66    
Maximum Humidity 87    
Minimum Humidity 42    
Precipitation  
Precipitation 0.00 in - - ()
Sea Level Pressure  
Sea Level Pressure 29.94 in    
Wind  
Wind Speed 8 mph ()    
Max Wind Speed 16 mph    
Max Gust Speed -    
Visibility 7.7 miles    
Events Rain    
Averages and records for this station are not official NWS values.
T = Trace of Precipitation, MM = Missing Value Source: Averaged Metar Reports

Daily Weather History Graph

Daily Weather History Graph

Search for Another Location

Airport:

Trip Planner

Search our weather history database for the weather conditions in past years. The results will help you decide how hot, cold, wet, or windy it might be!

Date:

Astronomy

Jun. 13, 2013 Rise Set
Actual Time 7:33 AM SAST 5:27 PM SAST
Civil Twilight 7:05 AM SAST 5:55 PM SAST
Nautical Twilight 6:34 AM SAST 6:26 PM SAST
Astronomical Twilight 6:03 AM SAST 6:57 PM SAST
Moon 10:34 AM SAST (6/13) 9:54 PM SAST (6/13)
Length of Visible Light 10h 50m
Length of Day
9h 54m
Waxing Crescent, 19% of the Moon is Illuminated
Jun 13
Waxing Crescent
Jun 16
First Quarter
Jun 23
Full
Jun 30
Last Quarter
Jul 8
New

Hourly Weather History & Observations

Time (SAST) Temp. Windchill Dew Point Humidity Pressure Visibility Wind Dir Wind Speed Gust Speed Precip Events Conditions
12:00 AM 46.4 °F - 42.8 °F 87% 29.89 in - Variable 2.3 mph - N/A   Clear
1:00 AM 46.4 °F 44.3 °F 42.8 °F 87% 29.86 in - WNW 4.6 mph - N/A   Clear
2:00 AM 54 °F - 43 °F 56% 29.86 in 12 mi WNW 10.4 mph - -  
2:00 AM 53.6 °F - 42.8 °F 67% 29.86 in - WNW 11.5 mph - N/A   Clear
3:00 AM 53.6 °F - 39.2 °F 58% 29.86 in - NW 11.5 mph - N/A   Clear
4:00 AM 57.2 °F - 37.4 °F 48% 29.89 in - NW 8.1 mph - N/A   Clear
5:00 AM 58 °F - 41 °F 42% 29.88 in 12 mi NNW 6.9 mph - -  
5:00 AM 57.2 °F - 41.0 °F 55% 29.86 in - NNW 6.9 mph - N/A   Clear
6:00 AM 55.4 °F - 41.0 °F 58% 29.89 in - NW 6.9 mph - N/A   Clear
7:00 AM 59.0 °F - 42.8 °F 55% 29.89 in - West 12.7 mph - N/A   Clear
8:00 AM 60 °F - 43 °F 42% 29.94 in 12 mi West 12.7 mph - -   Scattered Clouds
8:00 AM 59.0 °F - 42.8 °F 55% 29.92 in 6.2 mi West 12.7 mph - N/A   Partly Cloudy
9:00 AM 60.8 °F - 44.6 °F 55% 29.95 in 6.2 mi WSW 12.7 mph - N/A   Partly Cloudy
10:00 AM 60.8 °F - 48.2 °F 63% 29.98 in 6.2 mi WSW 16.1 mph - N/A   Partly Cloudy
11:00 AM 60 °F - 50 °F 60% 30.00 in 12 mi SW 16.1 mph - -   Mostly Cloudy
11:00 AM 60.8 °F - 50.0 °F 68% 30.01 in 6.2 mi SW 16.1 mph - N/A   Mostly Cloudy
12:00 PM 62.6 °F - 50.0 °F 63% 29.98 in 6.2 mi West 13.8 mph - N/A   Scattered Clouds
1:00 PM 60.8 °F - 50.0 °F 68% 29.98 in 6.2 mi SW 13.8 mph - N/A   Mostly Cloudy
2:00 PM 61 °F - 51 °F 62% 29.97 in 6 mi SW 12.7 mph - - Rain Light Rain
2:00 PM 60.8 °F - 51.8 °F 72% 29.95 in 6.2 mi SW 12.7 mph - N/A Rain Light Rain
3:00 PM 62.6 °F - 50.0 °F 63% 29.95 in 6.2 mi West 8.1 mph - N/A   Mostly Cloudy
4:00 PM 60.8 °F - 50.0 °F 68% 29.95 in 6.2 mi WSW 10.4 mph - N/A   Mostly Cloudy
5:00 PM 60 °F - 49 °F 59% 29.98 in 12 mi West 8.1 mph - -   Mostly Cloudy
5:00 PM 59.0 °F - 50.0 °F 72% 29.95 in 6.2 mi West 8.1 mph - N/A   Mostly Cloudy
6:00 PM 57.2 °F - 48.2 °F 72% 29.98 in 6.2 mi West 5.8 mph - N/A   Mostly Cloudy
7:00 PM 55.4 °F - 50.0 °F 82% 29.98 in 6.2 mi Variable 1.2 mph - N/A   Scattered Clouds
8:00 PM 53 °F - 49 °F 80% 29.99 in 12 mi North 4.6 mph - -   Partly Cloudy
8:00 PM 53.6 °F - 48.2 °F 82% 29.98 in 6.2 mi North 4.6 mph - N/A   Scattered Clouds
9:00 PM 55.4 °F - 48.2 °F 77% 29.98 in 6.2 mi NW 4.6 mph - N/A   Mostly Cloudy
10:00 PM 53.6 °F - 48.2 °F 82% 29.98 in 6.2 mi NW 4.6 mph - N/A   Mostly Cloudy
11:00 PM 55.4 °F - 48.2 °F 77% 29.98 in 6.2 mi WNW 8.1 mph - N/A   Mostly Cloudy